Terug naar catalogus

ITAMSAT

ActiefAmateurradioSSO
NORAD 22826·PAYLOAD·🇮🇹 Italy

Gelanceerd Sep 26, 1993 vanaf Guiana Space Centre

Loading…

Volgende Passages (komende 24 uur)

TLE

VersSource: Space-Track

Epoch: Sep 14, 2026, 04:11 UTC

1 22826U 93061D   26257.17488645  .00000067  00000-0  42004-4 0  9991
2 22826  98.6745 324.4460 0008987 175.1252 185.0020 14.31389938720047

Volg ITAMSAT in realtime met AllMySat

Download on the App Store